Theta_e
325 321 317 314 321 320 315 308 294 296 294 290 290 291 291 299 301 298 298 300 297 300 306 306 305 304 302 301 302 300 299 298 300 298 294 299 308 315 319 321 325 330 331 334 336 338 341 343 343 342 343 342 342 342 341 341 340 340 340 340 339 339 339 339 337 338 338 337 337 336 336 336 335 334 333 334 333 332 332 333 332 334 331 331 333 333 332 331 332 332 332 331 331 331 330 330 331
322 318 315 316 315 314 306 304 293 291 290 289 292 292 295 297 299 297 298 299 300 301 303 303 303 302 302 302 300 301 301 303 304 304 306 307 314 317 321 327 329 330 331 335 337 339 339 339 343 343 342 342 342 342 341 340 340 339 339 340 339 339 339 339 339 337 338 337 337 337 336 335 334 334 333 333 333 333 333 333 332 333 331 329 332 333 332 331 332 331 331 331 330 329 329 329 331
321 318 312 316 316 310 307 305 292 286 287 286 289 294 298 296 297 299 300 301 304 305 305 305 306 304 304 302 301 302 298 302 304 305 305 310 312 312 320 330 330 332 333 335 337 339 338 339 343 342 342 341 341 342 341 340 340 340 340 339 338 339 339 338 338 336 337 337 336 336 336 335 334 334 334 333 332 333 333 332 333 333 330 330 331 332 330 331 331 330 329 329 330 328 329 330 331
316 317 311 311 305 308 299 299 292 289 287 287 288 294 296 297 298 300 303 305 306 305 304 305 304 306 304 300 302 302 301 304 306 306 304 308 308 311 319 328 330 332 332 336 338 339 338 340 343 343 342 341 342 341 340 340 341 340 340 339 339 338 339 338 338 337 337 337 336 336 335 335 334 334 333 333 333 334 332 332 333 332 332 331 332 331 330 331 331 331 328 329 328 327 329 331 330
312 316 313 309 304 301 299 294 291 290 289 290 287 292 296 298 299 300 302 304 304 304 303 305 303 305 306 303 303 301 300 303 306 306 304 306 308 313 319 327 330 330 331 335 337 338 338 340 343 343 342 342 342 342 341 340 341 340 340 339 339 338 338 338 336 337 336 337 336 335 335 335 335 334 333 333 333 333 332 332 332 332 331 332 332 332 330 330 331 330 331 329 329 329 330 331 328
310 310 315 311 302 305 299 292 290 292 296 294 292 294 295 297 298 300 302 305 305 303 304 304 305 306 305 306 306 304 303 306 307 305 309 308 312 316 319 327 329 330 331 333 337 337 337 340 342 343 342 342 341 342 341 340 340 340 340 339 339 338 337 338 335 337 336 336 336 336 336 335 335 334 333 333 332 333 333 332 332 332 331 332 331 331 331 330 331 329 330 330 329 327 328 330 328
308 305 305 308 305 305 293 290 291 293 297 298 298 298 300 302 303 303 303 303 306 304 306 305 308 307 302 307 308 310 306 311 308 308 310 311 315 318 320 325 328 328 330 333 335 336 336 340 342 343 342 342 342 341 341 341 340 340 339 339 339 338 337 337 336 336 336 336 336 336 335 335 335 334 333 333 333 333 332 332 331 332 332 332 331 331 331 331 331 330 330 329 329 329 329 329 328
314 303 301 298 294 297 291 290 292 293 294 300 301 301 302 303 303 301 301 299 300 301 303 306 306 304 303 311 303 310 313 311 312 313 313 311 316 318 320 323 326 327 330 332 334 335 336 340 341 342 342 342 341 341 340 340 340 339 339 339 338 337 337 335 337 336 337 335 335 335 335 335 334 334 333 333 333 333 333 332 331 332 332 331 332 331 330 330 330 330 330 329 330 329 328 329 328
304 304 302 296 291 291 288 291 293 295 297 297 298 301 305 303 303 302 301 302 303 303 303 303 306 301 300 306 305 309 311 313 315 321 315 313 313 317 321 321 324 326 328 330 332 334 335 339 340 341 342 342 342 342 340 340 340 339 338 339 338 338 337 336 337 336 336 335 335 336 335 334 334 333 333 333 333 333 332 332 332 332 332 331 331 330 330 330 329 329 330 330 330 329 329 329 328
302 302 293 293 291 289 287 291 289 294 296 298 299 301 302 303 302 302 301 301 302 303 304 305 304 303 302 301 302 305 307 312 315 317 319 318 314 317 319 321 323 326 327 329 330 333 335 336 339 340 341 342 342 342 341 340 339 339 338 338 339 338 337 337 337 336 336 335 335 335 335 334 333 333 333 332 332 332 332 332 332 332 332 331 331 330 330 330 330 330 330 330 329 329 328 327 328
295 299 299 294 288 286 286 288 290 293 295 296 298 301 302 303 302 302 302 300 301 299 301 302 302 302 303 302 303 304 308 307 310 310 312 313 315 313 316 320 322 325 325 326 329 333 334 337 336 339 340 341 341 341 341 341 340 339 338 338 339 338 337 337 337 336 336 336 335 335 335 334 333 333 334 333 333 333 332 332 332 332 331 330 330 330 330 330 330 330 330 330 329 328 328 328 328
294 294 295 289 287 287 287 288 291 293 295 295 296 299 301 301 300 297 297 297 298 299 300 303 300 303 300 301 302 304 310 308 307 308 311 315 315 318 319 316 320 322 324 325 330 333 334 336 337 337 338 339 339 339 339 340 340 340 339 337 338 338 337 337 337 336 336 335 335 335 335 335 334 333 334 334 332 333 333 332 331 331 331 330 330 329 330 330 329 329 329 330 329 329 329 329 328
296 293 291 289 285 287 289 289 291 293 293 295 296 299 301 298 297 297 297 297 297 297 299 303 304 303 297 300 302 306 310 310 310 310 312 313 318 320 321 323 323 323 322 325 330 332 333 334 336 337 337 338 338 338 337 338 339 339 339 338 338 338 337 337 336 336 336 335 335 335 335 335 334 334 333 334 332 331 332 332 332 331 331 330 329 329 329 329 330 329 329 329 329 329 329 329 328
297 294 291 288 287 288 288 287 288 288 290 294 295 298 300 298 298 298 297 296 297 297 301 304 303 302 300 302 300 303 304 310 315 316 313 315 317 319 320 323 323 322 324 327 328 331 332 333 335 336 337 337 337 336 336 336 337 338 338 337 337 337 337 337 336 336 336 335 335 334 334 334 334 334 334 333 332 331 331 332 332 330 331 330 329 330 329 329 329 330 329 329 329 329 329 328 328
298 296 292 287 285 287 287 287 287 287 290 295 297 299 298 300 299 298 297 296 297 300 303 304 304 301 295 299 296 302 306 307 312 317 319 317 316 316 317 319 323 322 323 326 328 328 331 333 334 334 335 336 335 335 335 335 336 336 336 336 336 336 336 335 335 334 334 334 333 333 332 332 333 333 333 332 332 332 331 331 331 331 330 330 330 329 329 329 329 329 329 329 329 329 328 328 328
299 296 291 288 284 285 288 288 289 288 291 295 297 297 296 298 299 297 299 299 299 302 302 299 302 300 301 301 302 305 308 307 309 313 315 317 316 315 314 316 321 322 321 325 327 326 329 331 332 333 334 335 334 334 334 334 335 334 334 334 334 334 334 333 333 332 331 331 331 330 329 329 331 330 333 331 331 330 331 330 330 329 331 330 330 329 329 329 329 328 329 328 328 328 328 328 327
299 299 288 286 287 286 288 288 288 286 292 293 296 297 295 295 298 299 301 300 298 299 299 301 301 303 301 302 304 305 307 310 311 313 313 313 313 312 312 313 315 319 323 322 326 327 328 329 331 332 333 334 334 333 333 333 333 333 332 332 332 332 332 331 331 330 329 328 329 328 328 328 325 325 328 324 331 327 328 328 329 329 328 330 330 329 329 328 328 328 328 328 327 327 327 327 327
299 291 288 286 287 286 289 291 290 291 292 295 297 297 294 293 296 298 300 300 299 299 298 301 301 302 304 304 304 304 304 305 308 310 309 310 310 310 311 311 311 317 320 321 322 327 328 329 330 331 331 332 333 333 333 332 332 332 332 331 331 331 330 330 329 329 328 327 326 327 326 325 324 323 323 326 324 324 325 326 327 327 328 329 329 329 329 328 328 328 328 327 326 326 327 321 319
295 287 287 288 287 291 293 293 295 293 294 296 297 296 294 295 295 296 295 296 296 296 298 299 299 301 302 303 304 303 304 304 304 307 308 308 309 311 311 311 312 312 315 319 321 324 329 329 329 330 330 331 331 332 332 331 331 331 331 330 330 330 329 328 328 327 327 327 326 326 325 324 323 322 321 323 322 323 323 324 325 326 327 327 328 328 329 329 328 327 327 326 326 326 321 313 313
295 292 288 290 292 292 294 295 296 297 297 296 296 297 296 297 295 298 295 294 295 294 295 296 297 298 301 302 303 303 304 305 305 305 305 306 307 307 307 309 311 312 315 319 321 322 328 328 329 330 330 331 331 332 332 331 330 331 330 329 329 329 328 328 327 327 326 326 326 324 324 323 322 321 324 324 325 322 321 323 324 324 326 326 326 326 328 328 329 327 326 325 326 322 311 312 312
293 293 290 291 292 293 296 297 297 298 298 296 296 297 295 297 297 296 295 292 294 295 298 297 297 299 300 302 302 303 303 302 304 303 304 305 306 307 307 308 310 312 314 318 318 319 324 328 329 328 329 331 331 332 331 330 330 330 330 329 328 328 327 327 327 326 326 325 325 324 323 322 321 320 320 321 320 319 318 319 321 321 321 321 324 320 319 319 321 314 314 318 311 311 309 311 311
294 293 296 296 293 293 297 297 298 297 298 296 296 294 295 298 295 294 293 291 292 296 298 297 298 299 300 300 301 302 302 302 302 303 302 304 305 306 307 307 309 310 310 313 317 317 321 327 329 329 329 330 330 331 331 331 330 329 329 329 328 327 327 326 326 326 325 325 324 324 322 321 321 320 319 320 320 319 318 318 318 318 317 318 320 318 316 316 315 312 312 311 309 308 312 311 309
291 291 293 295 296 295 298 297 296 296 295 294 294 295 295 293 294 296 295 294 297 300 300 299 299 300 301 301 301 301 301 301 301 301 302 302 302 303 305 306 308 309 309 312 315 317 319 324 327 328 328 329 329 331 331 330 329 330 329 329 328 327 327 326 325 325 325 325 324 323 322 321 321 320 320 319 319 319 319 318 318 317 317 317 317 317 315 314 314 312 309 311 308 308 309 308 310
292 290 291 293 293 293 296 295 295 294 293 293 296 296 293 294 291 297 294 297 298 300 300 300 300 300 301 299 300 300 301 301 302 303 304 303 304 303 304 304 306 309 309 310 311 315 317 320 325 328 328 328 328 330 330 329 329 329 329 328 328 327 326 326 326 325 325 324 324 323 322 322 321 320 320 319 320 318 319 318 318 317 317 317 316 316 315 312 311 310 309 307 308 308 309 308 309
291 291 290 292 292 293 294 293 293 294 295 296 295 293 294 295 294 296 295 298 299 300 301 300 300 299 299 299 299 300 300 301 301 303 304 304 304 305 304 305 305 305 307 309 310 312 316 318 323 325 327 328 328 329 328 329 329 328 328 327 328 326 327 326 326 325 325 324 324 324 322 322 321 321 320 320 319 318 318 317 317 318 317 316 315 315 314 312 310 309 308 307 306 307 306 307 306
291 291 293 294 295 296 297 297 297 297 298 298 295 294 296 296 296 294 297 298 300 301 299 299 299 298 298 298 299 299 300 300 301 302 302 304 304 303 303 303 304 304 305 307 309 310 314 317 320 323 326 328 329 328 327 327 328 328 328 327 327 326 327 327 326 325 325 325 324 324 323 323 322 321 321 320 319 318 317 316 317 317 317 316 315 315 314 313 311 308 307 306 305 305 305 306 305
295 295 295 294 296 296 298 295 297 298 297 297 294 294 295 297 293 291 299 299 300 298 298 299 297 297 298 298 299 299 299 300 301 302 302 303 303 303 304 304 303 304 304 305 307 309 312 316 319 322 324 326 328 328 327 327 327 327 328 328 327 325 326 326 326 326 325 325 325 324 324 323 323 322 321 320 319 319 318 316 316 316 316 316 315 315 314 313 311 309 308 306 304 303 304 304 305
297 296 296 296 296 296 297 296 296 297 295 296 294 293 295 295 293 293 298 300 298 295 296 297 296 296 297 298 298 299 300 301 301 301 300 301 302 303 303 303 304 304 303 304 306 308 310 315 318 321 323 324 326 328 327 327 326 327 328 328 327 327 326 326 326 326 325 325 325 324 324 324 322 322 321 320 320 319 318 317 317 316 316 316 315 315 313 313 311 309 308 307 305 304 304 303 305
296 296 292 293 294 293 296 294 296 295 293 296 295 293 291 290 290 296 298 300 299 298 297 297 297 298 298 298 299 299 299 300 301 300 301 302 303 304 303 304 304 304 304 305 305 306 308 312 317 319 322 323 323 326 328 327 327 327 327 328 328 327 326 326 325 326 326 326 325 325 324 324 323 323 322 321 319 319 319 317 316 316 317 316 315 314 313 312 310 307 306 306 304 303 303 303 305
296 294 291 291 291 289 294 294 295 294 293 295 293 283 289 289 293 296 298 297 297 296 296 297 297 298 298 298 298 299 300 299 299 300 301 302 302 303 303 304 304 304 305 304 304 305 307 310 316 319 320 321 322 324 327 327 327 327 327 328 327 327 327 326 325 326 326 325 325 325 324 324 323 323 322 321 320 319 318 318 317 316 316 315 314 313 312 311 310 307 305 304 305 303 302 303 303
290 292 291 287 287 285 291 293 292 292 293 294 292 284 288 292 293 294 296 296 295 294 296 296 296 296 297 297 297 298 299 299 300 301 301 302 302 303 303 304 304 304 305 304 304 305 306 308 312 317 319 320 321 322 323 326 326 327 327 328 328 327 327 326 326 326 326 325 325 325 324 324 323 323 323 322 320 320 318 318 317 317 316 315 314 313 312 310 309 307 304 303 302 302 302 303 304
288 286 283 283 285 286 291 294 293 289 290 291 291 284 287 291 294 294 293 293 292 292 294 295 295 295 295 295 295 296 297 299 299 300 301 302 302 303 303 303 304 304 304 305 305 306 305 306 309 313 317 319 320 321 322 324 325 326 326 325 327 327 327 326 326 326 326 325 325 325 324 324 323 323 323 322 321 320 319 318 318 317 315 314 314 311 311 309 308 307 304 303 301 301 302 302 304
284 286 283 283 282 285 288 290 290 291 289 290 290 287 289 290 294 295 294 291 292 292 293 294 295 295 295 296 296 296 296 297 298 299 300 301 302 303 303 303 304 304 305 305 305 305 305 306 307 309 313 318 319 320 321 322 323 324 324 325 326 326 326 326 326 326 325 324 324 324 324 324 323 323 323 322 321 320 319 318 318 317 315 315 313 311 309 309 307 306 303 303 303 302 302 302 303
282 284 283 282 283 285 284 288 292 289 290 288 289 286 288 291 294 296 296 296 292 292 293 295 296 297 297 297 297 296 296 296 297 298 299 300 302 302 303 305 304 304 304 305 305 305 305 306 306 308 311 316 319 320 320 321 322 322 322 323 322 324 324 325 326 325 325 324 324 324 324 324 323 323 323 322 322 321 319 318 317 316 315 315 313 310 309 307 307 306 304 302 303 302 302 302 303
278 280 281 283 283 285 286 285 287 291 292 289 289 288 289 292 294 294 296 297 296 295 296 296 296 297 297 297 297 297 297 296 297 299 299 300 300 301 302 303 304 304 304 304 305 305 305 306 306 307 309 313 317 318 319 320 320 321 320 319 319 320 322 323 324 324 324 325 324 324 323 323 322 323 323 322 321 320 319 318 317 315 315 315 313 310 308 305 305 304 304 302 302 303 303 303 304
284 284 283 283 283 285 285 288 291 290 289 288 288 287 289 291 292 295 297 298 296 296 296 296 296 296 296 296 296 296 296 297 299 300 299 299 299 300 301 302 302 303 304 304 304 304 304 305 305 306 307 310 315 317 317 317 317 317 316 314 313 316 319 320 322 323 324 324 324 324 323 323 323 322 323 322 321 320 319 317 316 315 315 315 313 310 308 305 304 303 303 303 302 301 300 303 303
287 286 284 285 285 286 289 290 291 289 288 288 288 288 288 291 293 295 296 297 296 295 294 294 295 295 295 294 295 295 295 297 300 299 298 298 298 298 299 300 300 301 301 302 302 302 303 304 304 304 307 308 310 313 314 314 314 312 313 315 316 317 318 319 320 321 322 323 323 324 323 323 323 322 322 322 321 319 319 317 316 314 315 314 313 311 310 306 305 304 304 303 302 301 300 299 302
287 286 284 285 285 284 289 289 292 291 287 283 287 288 290 292 294 295 296 295 293 294 294 294 295 295 294 293 293 294 295 296 296 297 298 296 296 297 296 296 297 297 298 299 300 301 301 302 304 305 306 307 308 311 313 314 314 315 314 315 316 317 317 317 318 320 321 321 322 322 322 322 322 322 321 322 321 320 318 317 315 314 315 314 313 312 310 307 305 304 303 301 302 303 301 301 303
287 285 285 283 286 286 290 290 289 289 287 287 288 288 289 291 293 295 294 294 294 294 293 294 294 294 294 292 292 293 293 294 294 294 294 294 295 296 296 297 296 296 297 297 299 300 300 301 302 305 306 307 308 309 310 312 313 314 315 315 316 316 318 318 319 319 319 319 319 319 320 320 321 321 321 321 321 321 319 318 316 315 314 313 311 310 309 306 305 304 303 303 300 299 300 301 303
285 283 281 283 285 283 283 285 288 289 288 287 289 286 288 291 294 292 292 292 292 293 293 293 292 292 292 293 293 292 292 293 293 293 294 294 293 294 294 295 297 298 297 296 296 298 300 301 301 303 305 306 308 308 309 311 313 313 314 314 315 315 313 313 313 312 315 315 317 318 320 321 321 322 322 321 321 321 320 318 316 314 314 313 312 310 308 307 304 304 303 303 302 300 300 301 304
286 286 285 284 285 286 285 286 287 290 290 287 286 285 286 288 286 288 292 292 292 293 291 289 290 290 291 291 291 291 291 292 293 294 295 295 295 296 295 296 296 296 297 297 296 296 299 299 301 302 304 305 307 308 309 309 309 306 306 306 307 308 308 310 310 310 314 316 318 318 319 320 321 321 321 321 321 321 320 319 316 315 314 313 312 311 308 307 305 305 304 303 302 303 300 300 302
283 287 287 287 287 286 286 287 286 283 283 283 285 280 278 281 286 289 292 292 292 291 286 288 288 289 290 290 290 291 292 291 293 294 294 293 293 295 296 296 296 295 297 298 298 297 297 299 300 301 302 303 305 307 308 309 308 309 308 308 306 306 309 308 310 313 314 315 316 317 315 317 319 320 320 320 320 319 319 319 317 315 314 313 312 311 309 307 305 304 304 304 303 303 302 300 300
281 284 288 289 288 287 285 285 283 278 277 282 285 277 277 285 287 289 290 288 290 291 285 287 287 289 289 289 290 290 290 291 292 292 292 293 295 295 297 298 297 296 297 296 295 295 296 298 299 300 301 301 304 305 306 307 307 308 309 310 310 310 310 310 312 314 315 315 315 315 316 316 318 318 318 319 319 319 319 318 317 316 315 314 312 311 309 307 306 305 305 304 304 303 301 300 301
281 283 284 286 285 284 284 283 283 282 280 284 284 283 278 280 286 287 287 287 289 286 286 286 287 287 288 289 289 289 290 290 290 291 292 293 293 294 296 298 299 299 298 296 295 296 295 296 297 298 299 301 302 304 306 308 308 308 308 308 309 309 309 310 311 311 310 311 313 313 314 315 317 318 318 318 319 319 318 318 317 316 315 314 312 311 310 308 307 305 305 305 304 304 302 301 301
283 285 286 285 286 285 282 283 281 280 279 281 279 282 277 277 283 286 287 287 286 285 285 284 285 286 287 288 290 289 290 290 290 291 292 293 294 295 295 297 300 298 297 296 297 297 295 295 295 296 297 298 300 301 305 306 308 308 308 308 307 308 309 309 304 307 308 309 311 310 312 313 314 316 317 317 317 318 316 318 317 316 315 314 312 312 311 309 307 305 304 303 303 303 303 302 301
287 285 286 284 284 284 283 282 283 280 278 278 279 281 275 279 281 284 284 284 284 283 284 285 286 286 287 289 289 290 290 291 291 291 291 292 293 293 294 295 297 297 296 296 296 295 295 295 295 295 296 296 298 300 304 305 305 306 306 306 307 307 305 302 303 305 306 305 309 309 310 311 312 313 314 315 316 317 316 317 317 316 315 314 312 312 311 309 307 305 304 304 304 303 303 302 301
287 287 289 281 280 280 279 280 279 277 273 280 280 282 281 275 282 285 284 284 282 284 284 284 285 287 288 288 288 289 290 291 291 291 292 291 292 292 291 295 297 297 296 295 296 295 294 294 296 296 295 294 296 299 301 303 304 304 306 306 306 306 304 304 303 303 304 303 308 308 309 311 311 312 311 312 314 315 316 315 316 316 316 314 312 312 311 310 308 306 305 304 304 303 303 302 301
288 284 280 281 284 276 279 273 275 274 274 277 280 282 282 274 278 283 286 286 285 285 285 286 286 287 286 287 288 288 288 290 291 291 292 292 292 292 291 292 293 296 295 296 295 295 295 294 295 296 295 295 295 297 299 301 302 302 303 303 304 304 303 304 304 305 305 306 307 307 306 306 308 310 310 311 312 313 314 314 314 315 314 314 313 312 312 311 309 307 305 304 304 303 303 303 302
286 282 283 278 271 271 269 270 270 273 274 277 277 282 279 280 285 286 288 287 286 284 287 288 287 286 287 287 287 287 288 288 290 290 290 291 291 292 292 292 292 294 296 296 296 294 294 295 294 295 295 294 297 297 298 299 300 301 302 302 302 302 303 304 304 305 305 306 307 307 306 308 308 308 309 310 311 312 312 312 312 313 313 313 313 312 312 311 309 307 306 305 304 303 303 303 302
284 284 282 279 272 270 265 266 267 271 276 279 278 282 279 280 284 291 291 293 293 289 285 287 287 287 288 288 287 287 289 288 289 289 289 289 290 291 291 291 292 292 292 295 296 296 295 295 294 294 295 294 295 295 297 297 299 300 300 301 302 302 303 303 304 305 305 306 307 308 308 309 309 310 310 310 312 311 311 312 312 313 313 313 312 311 311 310 309 308 307 305 304 304 303 303 303
286 285 285 282 278 271 268 268 270 271 272 276 278 277 274 280 283 285 288 291 293 290 288 287 286 287 287 285 286 287 287 288 288 289 289 289 290 290 291 292 292 292 292 293 293 294 293 296 294 294 294 295 294 295 295 296 297 297 298 300 301 302 303 303 303 304 305 306 306 307 308 309 310 311 311 312 311 311 311 311 311 312 312 311 310 310 310 309 309 308 307 306 305 305 304 303 303
283 282 283 278 280 279 275 273 271 271 271 270 275 276 277 283 284 288 289 287 286 285 286 286 287 287 286 288 289 289 288 289 289 288 290 289 288 288 290 290 290 290 291 290 292 293 294 295 294 295 295 295 295 295 295 296 297 297 296 298 300 301 301 302 302 303 304 306 306 307 307 308 309 310 311 310 310 311 311 311 310 311 311 311 310 310 310 309 308 308 307 306 306 305 304 302 302
282 284 281 284 284 284 279 276 276 273 270 274 274 278 280 284 289 292 292 288 289 285 285 285 288 288 286 287 288 287 288 287 288 289 289 290 289 289 288 289 290 290 290 292 294 293 294 295 295 295 296 295 295 295 296 295 296 296 296 297 297 298 300 300 301 301 302 303 305 306 306 307 308 309 310 310 310 310 311 311 310 310 310 310 310 309 309 309 308 308 308 306 306 304 303 303 303
282 280 283 285 286 284 278 271 269 267 269 272 276 277 279 279 279 283 285 284 286 285 286 287 288 286 285 288 288 288 288 287 287 288 289 289 289 289 289 289 289 290 291 290 292 291 292 294 294 294 294 297 297 296 296 295 295 295 296 296 296 298 299 300 300 301 301 302 302 304 303 304 305 307 308 308 309 309 310 308 310 310 310 309 309 309 309 309 308 307 308 307 307 304 303 303 303
284 281 283 285 277 276 277 272 270 268 267 268 272 275 278 280 281 281 283 282 284 285 287 286 286 286 287 288 288 287 286 286 288 289 288 289 289 290 289 289 290 289 289 290 290 290 291 291 292 293 295 296 296 296 296 296 295 297 298 298 297 297 297 298 298 298 299 301 302 302 303 304 303 304 305 306 307 307 308 308 309 308 308 308 308 308 308 308 307 307 306 306 305 304 303 303 303
284 286 284 281 281 277 276 280 274 274 268 266 270 270 277 281 282 284 288 286 285 286 286 287 288 288 288 288 288 287 287 287 288 289 289 289 289 289 290 290 290 291 291 291 290 290 293 293 292 292 292 292 293 294 294 296 296 295 297 296 295 296 296 297 297 297 299 300 301 301 302 300 303 303 304 305 306 307 307 307 308 308 307 307 307 307 307 307 306 307 306 305 304 303 303 303 303
283 283 281 280 280 282 281 279 277 276 266 265 267 271 277 278 285 287 289 288 286 287 287 288 288 287 287 288 288 287 287 287 289 289 289 289 289 289 289 289 289 289 288 289 291 291 292 291 291 292 294 294 293 294 294 295 295 295 295 296 296 296 296 296 296 296 298 299 300 301 302 303 301 302 303 304 304 305 306 307 307 307 307 306 306 306 306 306 306 305 305 305 303 302 303 303 303
286 285 283 284 281 278 275 275 277 270 272 269 266 273 280 282 284 288 288 287 286 287 288 289 289 287 287 288 287 286 287 288 289 289 288 289 288 289 290 290 289 290 292 291 292 292 292 292 293 292 291 294 294 294 294 295 294 294 295 295 295 295 296 295 295 296 297 298 298 299 300 298 300 302 302 303 304 304 305 305 306 306 306 306 305 305 305 305 305 304 304 304 303 302 302 303 303
Wind_Speed
4 5 4 4 0 0 2 1 1 2 1 7 3 4 6 5 7 5 8 3 4 4 8 8 10 9 6 5 6 5 3 4 6 6 6 2 3 4 4 7 4 7 11 10 10 11 12 15 18 19 20 20 20 20 19 19 18 17 17 16 16 16 16 16 16 15 15 14 14 14 13 12 12 12 11 11 11 11 10 11 10 9 9 9 8 7 6 7 5 4 5 5 3 3 3 2 3
2 4 4 3 1 2 1 2 1 0 1 6 10 1 7 2 1 8 11 9 7 4 1 1 5 7 8 9 6 1 4 7 4 3 2 2 1 0 4 8 10 12 9 10 10 10 11 12 19 19 20 20 20 19 20 19 19 18 18 16 16 15 16 16 16 15 15 14 15 14 13 12 12 12 11 12 11 12 11 10 10 10 9 9 9 8 6 6 5 5 4 5 4 3 2 1 3
2 4 5 4 2 1 0 1 2 2 4 9 6 9 1 5 10 9 9 11 13 9 10 11 9 7 7 1 3 4 8 2 2 1 0 1 2 3 4 6 8 10 11 9 11 11 9 11 18 18 20 20 20 20 19 19 19 18 18 17 17 17 16 17 16 15 16 15 14 13 13 13 12 12 13 12 12 11 11 10 10 10 9 9 9 9 8 7 5 5 5 4 3 4 3 1 2
2 1 1 2 0 2 1 1 1 5 5 5 7 5 6 7 11 11 10 15 15 8 5 9 9 2 4 5 6 1 3 2 2 2 1 3 7 5 7 8 7 7 6 7 10 11 10 13 18 19 20 21 21 20 19 19 19 18 18 17 18 18 16 17 16 16 15 16 15 14 13 13 13 13 12 12 12 11 11 10 10 9 9 9 8 8 8 8 6 6 6 5 4 4 4 1 2
3 0 1 1 3 0 1 3 4 4 10 5 7 3 5 7 10 7 7 11 10 7 5 3 3 3 3 3 0 1 3 5 3 3 1 2 1 4 5 6 8 8 8 7 8 10 10 17 18 18 20 21 21 20 20 19 19 19 18 18 17 18 17 16 16 16 15 15 15 14 14 13 13 13 12 12 11 11 10 10 10 10 9 9 9 8 8 8 7 6 6 6 5 4 3 2 2
3 3 1 1 1 2 2 1 3 9 10 3 4 3 2 4 4 5 9 11 10 6 10 9 8 6 4 3 3 2 3 2 1 3 0 3 3 6 5 4 6 8 7 7 7 8 10 18 18 19 21 21 22 21 21 21 21 19 19 19 18 17 17 16 16 15 15 15 15 14 14 14 13 13 12 12 12 11 11 10 11 10 10 10 8 8 8 7 7 7 6 6 5 5 5 3 3
2 4 1 1 2 1 4 4 8 7 10 3 6 7 7 8 9 9 12 10 13 7 5 4 1 1 3 2 2 4 4 3 0 1 2 3 1 7 8 5 5 6 7 8 7 8 11 17 18 18 20 21 22 22 21 22 22 20 19 19 18 18 18 16 17 16 15 16 15 15 14 14 14 13 13 12 12 12 11 11 10 10 9 9 9 8 8 7 7 7 6 6 6 6 5 4 3
0 1 1 1 2 0 3 5 9 5 5 9 6 8 9 10 9 4 10 4 9 7 3 2 2 1 9 1 2 3 1 1 3 3 1 4 1 3 7 8 7 6 7 7 8 8 12 18 18 18 18 20 21 22 21 21 21 20 19 20 19 18 18 17 17 17 16 16 15 15 15 14 14 13 13 13 12 12 12 11 11 11 10 10 9 9 8 8 8 8 6 7 7 7 6 5 3
2 1 1 3 1 1 3 7 8 3 7 3 6 5 8 10 9 8 11 11 11 8 14 9 5 3 3 1 4 4 6 4 2 2 6 4 1 2 2 6 8 8 8 7 6 7 11 17 19 19 18 19 19 20 20 21 20 20 19 19 20 19 18 18 17 17 17 16 16 16 16 14 14 13 13 13 12 12 12 12 11 11 10 10 9 9 9 8 8 8 8 7 7 6 6 6 4
1 1 1 2 2 6 3 9 4 4 5 5 9 11 11 9 9 7 9 10 12 11 14 15 4 10 2 3 3 5 3 1 4 0 2 8 4 4 4 6 6 10 10 9 8 7 8 15 21 20 19 18 18 18 18 19 20 20 20 19 19 20 19 19 18 18 17 17 16 16 16 15 14 14 13 13 13 13 13 12 12 11 11 11 10 10 9 9 9 9 9 8 7 7 6 7 7
2 3 2 1 1 5 8 8 6 8 7 4 7 8 10 10 8 9 7 7 5 4 9 2 1 6 3 3 4 3 3 4 2 2 1 2 1 6 6 4 6 9 11 11 10 9 9 10 19 21 20 19 18 17 17 17 19 20 20 20 20 20 19 19 19 18 18 18 17 17 16 15 15 14 12 12 11 11 13 13 12 12 12 11 11 11 10 10 9 10 9 9 8 7 7 7 7
1 0 1 4 5 5 4 4 8 8 6 4 8 5 5 7 5 4 5 5 5 8 6 3 2 3 4 2 2 2 4 3 2 4 2 2 0 1 2 4 4 5 7 12 10 10 10 10 11 17 20 20 18 17 17 17 18 19 19 20 20 20 20 20 19 19 19 19 18 18 17 16 15 15 13 12 10 10 11 11 12 12 12 11 11 11 11 10 10 10 10 10 9 8 8 7 7
1 1 0 1 4 3 3 6 10 7 7 7 6 4 4 4 4 6 4 4 5 5 7 1 5 4 3 1 3 5 2 1 4 5 3 1 0 1 1 1 1 2 3 4 9 10 11 10 11 11 15 20 18 17 16 17 17 17 18 18 18 18 20 19 19 19 19 19 18 17 16 16 15 15 14 12 11 11 10 9 11 12 12 12 11 11 11 11 11 10 10 10 9 9 8 7 8
2 4 3 4 0 2 3 5 5 7 10 6 4 4 5 5 4 4 1 6 6 4 2 5 6 3 6 2 5 3 6 1 2 7 4 5 5 4 2 4 4 2 1 2 4 6 8 9 11 9 12 14 12 14 16 17 17 17 17 17 17 17 17 18 18 18 17 17 17 15 14 14 14 13 13 12 11 11 11 10 10 13 12 12 12 11 12 11 11 10 10 10 9 9 8 8 8
3 1 1 1 3 1 3 3 3 3 11 1 4 5 4 4 4 5 5 9 9 5 3 4 2 3 3 3 5 3 4 2 6 8 6 3 3 3 3 1 6 6 5 4 1 3 6 7 9 8 10 11 11 10 10 14 18 17 17 16 17 17 16 16 16 15 15 16 16 15 13 12 12 12 12 13 11 12 12 12 10 9 13 13 12 12 12 12 12 11 10 10 10 10 9 8 9
3 2 1 2 3 2 5 3 4 5 10 2 5 5 6 9 2 4 5 4 5 3 1 7 1 4 3 6 7 6 7 3 2 0 3 10 4 4 2 2 2 4 6 5 4 4 4 5 6 8 8 10 10 9 9 10 15 18 17 16 16 16 16 15 15 14 14 15 14 13 12 10 10 10 12 10 13 12 13 10 14 9 9 11 13 12 12 12 12 11 10 10 10 10 9 9 9
2 2 1 1 9 3 4 3 1 6 7 4 4 7 7 8 6 6 4 4 8 9 5 5 5 1 6 6 6 5 8 2 3 0 1 2 3 3 1 2 1 1 3 4 4 5 4 6 7 7 7 8 9 9 8 10 11 16 15 16 15 16 15 15 13 14 12 10 11 11 11 8 6 6 8 5 10 10 12 13 14 12 11 8 11 12 12 12 12 12 11 11 10 10 9 9 9
2 2 2 7 6 3 6 6 6 2 4 8 10 6 7 13 7 8 8 13 9 12 12 9 5 6 8 7 4 5 5 5 1 4 5 6 3 3 3 4 2 6 6 5 4 5 6 6 8 8 7 7 7 8 7 7 8 13 11 10 10 12 13 13 11 9 9 6 10 9 7 7 7 6 6 6 5 6 10 13 13 12 12 11 9 11 12 12 12 12 12 11 11 10 9 4 4
4 1 3 10 4 7 5 4 7 3 10 10 10 8 7 12 6 2 7 13 11 14 16 10 11 11 9 8 8 6 6 5 4 3 6 7 7 7 7 6 7 3 3 5 6 8 8 8 7 8 9 9 7 7 6 7 9 9 10 10 9 11 10 11 9 9 7 7 7 7 6 6 6 6 6 6 4 7 7 11 12 12 12 13 12 9 9 10 13 13 12 11 10 10 6 3 3
4 5 7 10 6 4 4 4 8 7 11 12 13 12 10 13 6 4 8 12 10 17 17 13 10 14 16 12 8 7 6 7 5 6 7 8 7 6 6 5 5 5 7 8 10 8 9 9 11 10 10 10 9 7 6 7 8 8 8 8 8 8 9 9 9 8 8 8 8 6 6 5 6 6 7 9 7 5 6 9 12 12 12 12 13 9 9 7 8 11 12 12 8 4 3 3 3
2 4 7 6 4 7 8 9 12 14 10 11 12 11 11 13 9 3 9 12 17 17 19 13 16 16 14 13 13 8 8 8 9 8 8 9 9 7 7 8 8 9 8 6 4 6 9 11 9 10 10 10 11 9 8 8 8 8 8 8 8 8 8 8 8 8 8 9 9 7 6 5 5 6 6 6 6 5 4 5 6 7 6 6 10 7 6 5 5 3 3 5 2 3 3 4 3
1 8 8 9 5 7 12 9 11 10 10 9 12 12 15 9 6 6 7 12 16 16 10 4 10 12 12 13 11 9 10 10 11 12 8 9 9 8 7 7 6 6 3 4 8 7 9 11 11 10 10 10 11 11 11 8 7 8 9 9 8 8 9 9 8 8 8 9 8 8 7 7 6 6 6 6 6 6 6 5 6 6 5 6 6 6 6 6 5 4 4 5 3 2 4 4 3
6 4 6 8 9 12 7 6 7 7 7 8 9 9 5 5 11 13 11 17 19 21 16 13 11 11 12 11 11 14 13 13 11 10 10 9 8 8 8 7 6 7 6 8 7 6 8 9 10 8 9 9 11 10 9 8 8 8 8 8 9 9 8 9 9 8 8 8 9 8 8 7 7 7 7 7 8 7 7 7 6 6 6 6 6 6 6 5 6 6 5 5 4 3 4 3 3
5 8 3 8 6 12 10 11 10 10 11 12 10 6 9 12 15 14 11 20 19 19 19 15 13 13 13 13 14 15 17 16 16 16 15 14 11 10 9 10 8 6 5 7 7 7 6 8 9 10 10 10 10 10 10 9 9 8 8 8 9 9 9 10 9 9 8 9 9 8 8 8 8 8 8 8 8 7 8 7 6 6 6 6 6 6 6 6 5 5 5 4 4 4 4 4 4
6 7 3 5 4 7 7 7 8 10 14 12 10 11 17 13 14 11 22 24 22 18 19 12 14 13 13 13 16 17 17 17 16 16 14 13 11 9 8 8 8 7 8 7 7 8 9 9 8 10 10 11 10 10 10 10 9 9 7 8 10 9 9 9 9 8 8 8 8 9 9 9 8 8 9 9 7 8 7 7 7 7 6 6 6 6 7 7 6 6 6 5 5 5 5 6 5
3 4 2 6 8 10 11 12 13 15 11 10 11 17 18 17 7 17 26 27 24 17 12 15 14 14 14 15 17 16 16 18 18 16 17 14 12 12 11 9 9 9 10 10 8 8 8 7 8 11 11 12 11 10 10 9 9 10 10 10 9 8 10 9 8 8 9 8 9 9 10 9 9 9 9 7 9 9 8 7 7 7 8 6 7 8 7 6 7 6 5 5 5 6 6 7 5
2 7 4 7 11 11 11 8 13 15 11 15 13 20 19 12 6 13 22 18 11 9 12 13 11 12 15 14 14 14 15 17 18 17 15 13 13 13 14 11 11 11 10 11 9 8 8 7 9 11 11 10 9 11 10 11 10 10 10 10 8 9 9 7 8 8 8 9 9 9 10 10 9 9 9 9 8 8 8 8 8 7 7 8 8 8 6 7 6 7 7 6 6 6 7 6 6
7 6 10 10 9 10 15 14 17 10 9 8 8 15 15 8 5 19 23 22 4 6 11 12 9 11 12 14 15 14 13 15 15 13 16 16 14 13 13 12 12 11 11 11 10 9 9 10 11 12 12 11 10 11 11 10 10 11 10 9 10 10 8 8 9 8 9 9 9 9 10 10 9 9 9 9 9 9 9 9 8 8 9 7 8 7 7 7 7 6 6 6 5 5 6 6 5
4 6 13 14 9 9 14 10 10 3 6 6 1 13 16 6 11 23 20 17 17 15 16 15 16 16 16 15 15 13 14 15 13 12 14 15 14 13 15 13 12 12 9 11 12 10 11 10 11 12 12 12 12 12 12 11 10 10 10 10 10 10 9 9 9 10 10 9 9 10 10 11 10 10 10 10 10 9 9 8 8 9 8 8 7 8 8 7 6 6 6 4 5 5 5 6 5
8 3 4 14 11 8 12 2 5 2 5 4 4 8 16 4 16 14 11 9 11 13 16 16 15 15 14 14 13 15 14 13 13 14 14 14 14 14 14 15 13 12 10 8 9 11 9 7 8 9 12 13 13 12 11 10 10 10 10 10 10 10 9 10 11 10 9 9 10 11 11 11 10 10 9 9 9 9 9 9 9 9 8 8 8 7 8 7 7 7 7 6 6 6 7 6 6
3 5 2 7 9 8 6 1 1 6 5 0 4 6 15 19 11 8 8 7 9 13 16 15 14 14 13 12 12 14 15 13 15 16 16 16 14 13 14 15 14 13 11 10 12 13 12 11 9 8 11 13 13 13 12 11 10 11 10 10 10 11 11 11 10 9 9 10 10 10 11 11 12 11 11 10 10 9 9 9 9 9 7 8 8 8 8 7 7 8 6 7 6 6 6 7 6
2 5 4 1 5 9 7 7 5 4 3 3 3 10 13 16 22 5 7 6 5 11 16 16 16 15 14 12 13 14 15 14 14 15 16 15 15 14 14 15 15 13 14 13 13 13 13 12 11 11 11 14 14 14 13 13 12 11 11 11 11 11 10 11 11 11 11 10 10 10 12 12 12 12 11 10 9 10 10 10 9 7 9 8 8 7 7 8 7 7 7 7 7 7 6 7 6
2 5 7 6 3 8 12 3 2 5 2 1 4 11 14 17 13 12 7 5 8 13 18 17 18 18 16 13 12 12 13 13 12 13 15 15 14 14 14 15 15 15 14 14 14 13 13 13 11 12 13 14 14 15 15 13 12 11 11 11 12 11 11 11 10 10 10 10 10 11 12 13 12 12 12 12 10 10 10 9 8 9 8 9 8 8 8 7 8 7 6 7 7 7 7 7 6
4 2 6 3 5 5 7 5 6 1 2 5 3 6 17 20 22 21 20 11 7 11 17 19 18 16 15 13 12 12 12 12 13 14 15 14 13 14 14 14 16 15 14 15 15 15 15 14 12 13 12 13 13 14 14 13 12 12 11 11 11 11 12 11 10 9 9 10 10 11 11 12 12 13 13 12 11 10 10 9 8 9 9 8 8 8 9 7 7 8 8 7 8 7 7 8 7
3 2 4 8 4 8 12 7 4 10 10 8 11 12 22 23 18 16 16 15 11 14 16 17 18 17 16 12 11 11 11 12 14 14 14 13 13 13 12 13 14 14 12 14 14 14 13 13 11 12 13 12 12 12 12 13 12 11 10 10 9 9 8 9 9 9 10 10 11 11 10 10 11 12 13 12 11 10 9 9 8 8 8 9 8 8 8 8 8 8 9 8 6 7 7 7 7
6 4 5 6 10 10 9 7 6 4 11 12 11 15 20 23 20 18 20 17 11 14 14 13 14 14 12 11 10 9 9 11 13 12 10 9 9 11 11 12 13 13 13 13 14 13 13 13 10 10 12 12 12 11 11 10 9 9 9 5 5 6 7 8 9 10 10 11 11 11 10 11 11 11 12 11 11 10 9 9 9 8 9 9 9 10 9 9 10 9 9 9 7 5 3 6 5
2 2 4 11 11 15 14 9 6 3 6 12 11 12 16 22 22 20 19 17 16 15 13 11 10 10 9 8 8 8 8 11 10 7 7 7 8 9 10 10 11 12 12 12 12 12 13 14 11 12 11 11 11 10 10 10 10 7 7 9 11 10 10 10 10 10 10 10 11 12 11 11 10 10 11 10 11 10 8 8 8 9 9 10 10 12 11 10 9 10 8 6 9 7 6 4 4
5 6 5 11 10 14 14 11 8 7 2 5 4 12 19 21 21 19 16 13 15 12 11 12 12 10 8 7 7 6 7 6 6 8 7 5 5 7 6 7 7 9 11 10 12 14 13 13 13 14 11 11 12 13 12 11 11 11 12 12 12 11 10 10 11 11 13 11 11 9 9 9 10 10 10 10 10 10 9 9 10 10 10 10 10 8 8 8 9 8 7 6 5 10 8 6 6
7 7 6 7 13 7 13 13 4 4 3 11 6 14 19 22 22 20 15 12 10 7 6 10 10 12 10 8 6 6 7 9 7 6 5 4 4 4 4 5 6 7 8 8 12 13 12 12 12 12 11 12 12 13 12 12 10 11 12 10 13 10 10 11 10 9 7 7 7 8 8 8 9 9 11 11 11 11 11 10 10 9 10 9 8 8 8 9 10 11 10 11 7 4 4 5 8
7 6 4 13 5 4 9 2 3 4 1 11 11 14 17 19 18 12 10 6 6 7 7 9 7 5 6 8 6 5 7 9 8 6 7 6 4 4 3 4 6 5 7 7 6 8 9 10 11 12 12 12 12 13 13 13 14 15 13 10 7 7 6 5 4 2 4 5 7 9 10 10 12 12 12 11 11 11 11 11 8 9 10 10 10 10 10 11 9 9 9 9 8 7 6 8 8
7 9 11 10 9 10 8 8 7 10 7 3 6 9 12 9 9 9 5 3 4 7 7 4 2 2 5 6 4 3 5 6 7 7 6 6 7 6 4 5 5 5 6 6 7 8 7 10 12 13 12 12 11 11 13 12 9 4 3 2 3 3 3 3 4 4 6 9 11 10 12 11 11 10 10 12 11 11 10 9 10 10 10 10 10 10 11 12 11 11 12 10 11 12 10 5 7
6 12 16 13 10 10 8 7 8 6 9 2 5 9 7 5 9 14 13 9 9 5 6 6 6 8 8 8 7 8 7 3 5 5 5 5 5 6 7 7 5 5 6 7 7 8 8 9 10 10 9 8 10 11 13 11 10 11 9 8 6 5 7 6 9 12 12 11 11 5 3 4 7 8 9 10 10 9 10 11 10 10 10 10 10 10 9 8 10 11 12 12 12 10 10 7 6
4 7 9 15 15 11 7 8 2 5 3 2 5 1 13 7 15 13 9 4 9 9 4 6 5 5 6 6 7 7 6 9 7 5 5 6 5 5 6 6 6 6 7 5 4 5 6 8 8 9 9 9 9 8 8 8 8 8 12 14 13 13 13 10 9 9 9 8 7 8 9 8 10 11 9 9 10 11 10 10 11 11 10 10 9 9 10 12 11 12 10 10 11 10 7 9 10
7 3 3 4 4 5 6 4 7 8 2 8 2 5 7 12 18 1 2 4 8 7 6 5 5 5 5 5 6 5 6 5 4 6 6 5 5 3 5 7 6 7 6 4 2 1 4 5 5 6 6 6 6 6 8 10 11 11 11 11 11 11 12 13 12 9 4 4 6 8 7 8 10 11 12 11 11 11 10 10 10 10 10 10 10 11 12 10 9 8 10 12 10 10 11 11 10
5 2 6 5 7 6 3 4 4 3 4 11 4 2 2 7 11 2 4 8 6 3 4 5 4 4 5 5 5 5 5 4 3 4 6 6 6 6 5 6 6 5 5 3 2 1 1 2 3 2 4 5 4 4 6 8 10 11 12 11 10 9 10 9 3 5 6 6 7 5 6 7 8 9 9 10 10 11 10 10 10 10 10 10 10 10 10 10 12 11 10 10 11 10 10 10 8
7 2 3 2 2 2 3 2 2 4 2 16 6 7 3 12 7 7 1 2 6 5 5 5 4 4 4 4 5 6 5 6 4 4 4 5 5 5 5 6 5 4 4 4 3 2 2 2 3 2 3 3 4 5 6 7 6 6 8 8 11 10 7 4 4 6 6 6 7 7 7 7 7 8 8 8 9 10 11 10 10 12 12 10 9 11 10 9 10 10 12 12 12 11 9 9 11
3 3 1 3 4 3 2 3 2 4 5 19 6 12 9 8 6 9 3 6 6 4 2 4 4 4 4 4 4 4 5 6 6 7 6 5 5 5 4 4 4 5 4 3 2 2 1 1 1 1 2 2 3 5 5 7 7 6 9 10 11 11 7 7 6 5 5 5 7 7 7 7 6 7 7 7 9 9 10 10 10 11 10 9 10 10 10 10 10 10 10 10 11 12 10 10 9
4 1 3 5 6 5 1 3 3 2 10 2 7 13 11 9 9 8 6 5 3 10 6 7 5 5 4 4 4 4 4 5 7 6 7 7 7 7 5 5 5 4 4 5 4 3 2 1 0 3 2 4 4 5 5 6 7 7 6 7 9 8 7 8 9 9 8 9 8 8 6 5 6 6 6 7 8 8 9 9 9 9 10 9 10 9 9 9 8 8 9 10 10 10 9 9 9
5 5 4 3 4 6 2 3 3 8 10 2 2 7 1 15 13 8 7 6 8 4 7 10 8 6 5 5 4 4 5 5 5 6 6 7 5 6 6 6 5 5 5 5 4 3 3 3 2 2 4 3 5 6 7 6 6 8 8 8 7 6 7 8 9 9 8 8 8 7 7 8 7 7 8 9 9 9 9 9 10 10 9 9 9 8 9 8 8 9 9 10 10 11 11 11 10
8 8 6 5 3 2 4 5 2 6 6 4 2 1 6 2 8 20 23 22 13 8 6 6 7 7 6 6 4 4 4 4 5 5 6 6 6 5 5 5 5 4 4 4 4 4 4 2 2 2 5 3 2 4 6 6 7 7 7 7 8 8 9 9 8 9 8 8 8 9 10 10 9 11 10 10 9 9 9 10 9 10 9 8 8 9 8 8 8 9 9 10 11 10 9 11 11
12 4 11 9 7 6 5 4 5 6 4 5 2 4 8 5 6 1 6 10 9 5 9 8 8 7 6 4 3 4 4 4 4 5 5 6 7 6 5 5 5 5 4 4 3 4 3 4 3 3 4 4 2 3 3 5 5 5 5 6 7 7 9 8 8 8 8 9 8 9 9 8 9 9 9 9 8 10 10 8 9 10 9 9 8 8 8 8 8 8 9 10 9 9 9 10 10
3 4 5 4 11 4 5 4 1 2 4 4 2 7 4 7 4 10 7 6 4 1 6 6 7 6 4 4 4 4 4 4 4 5 6 6 5 5 5 5 4 4 5 4 4 3 3 4 3 4 4 4 4 3 4 4 4 4 5 5 7 6 6 6 7 7 8 9 9 9 9 9 8 7 7 6 7 9 9 10 9 9 8 8 8 8 9 8 8 9 8 9 10 7 9 10 10
4 8 9 10 3 5 5 3 0 0 1 11 3 8 7 8 13 15 12 4 7 1 5 6 8 7 5 5 5 4 4 4 4 4 5 7 6 5 4 5 4 4 4 4 4 3 4 4 3 4 5 4 4 4 4 4 4 4 4 5 5 5 6 7 8 7 7 6 6 7 7 8 7 6 7 6 7 8 8 9 9 8 8 8 8 9 9 9 8 9 9 9 10 8 9 11 9
6 6 8 3 2 3 4 4 3 1 5 7 2 10 7 3 11 1 4 3 7 6 9 10 9 7 6 8 6 6 5 4 4 5 6 7 6 6 5 4 4 4 4 4 4 3 4 4 3 4 4 5 6 5 5 4 4 4 4 4 4 5 5 5 5 5 5 5 5 5 4 6 7 6 6 6 6 8 8 9 9 9 8 8 9 8 8 9 8 9 9 9 9 7 9 8 8
6 4 3 8 4 3 2 5 3 2 4 6 5 4 8 11 10 4 3 5 7 9 10 7 9 8 8 8 7 6 6 6 5 4 4 5 5 5 4 4 4 4 4 4 4 2 1 2 3 3 4 4 4 4 4 5 3 4 3 4 5 5 4 4 4 4 4 5 6 5 6 6 4 5 5 5 6 6 7 7 8 8 7 8 8 8 8 8 8 8 8 8 7 7 8 9 8
1 1 1 1 2 1 7 8 2 3 5 0 8 1 11 5 6 9 12 10 11 10 8 12 14 12 10 8 6 6 5 5 5 5 5 5 5 4 5 5 4 4 4 4 4 2 2 3 2 3 3 2 2 3 4 5 5 4 4 3 3 3 3 4 4 4 5 5 5 5 5 5 6 5 6 6 6 7 7 8 7 8 7 7 7 7 7 8 8 9 8 8 7 8 9 9 8
5 3 4 0 1 2 2 1 6 6 5 5 2 9 9 6 8 10 15 12 9 12 15 14 13 10 9 8 7 6 5 5 6 6 5 5 5 4 4 4 5 6 4 5 5 4 4 2 3 3 4 5 4 4 3 4 3 3 3 4 4 3 3 3 3 4 5 6 5 6 6 6 4 6 6 6 7 7 7 8 7 7 8 7 7 7 7 7 8 8 8 7 6 8 9 8 7
14 14 13 15 11 5 3 9 1 1 3 4 2 12 12 8 2 9 9 6 8 10 14 14 12 10 9 9 7 6 5 6 6 5 5 5 4 5 5 5 5 8 9 9 8 7 7 6 5 5 3 4 4 4 4 4 2 2 2 3 4 3 2 2 4 4 5 5 5 5 5 4 5 6 6 7 7 7 7 7 7 7 7 7 7 7 7 7 8 8 8 6 7 8 8 9 7
Wind_Direction
343 352 325 328 297 130 57 19 121 291 91 248 278 202 258 200 231 279 258 321 297 245 229 240 256 276 243 232 246 214 207 168 211 233 231 238 292 198 161 155 150 148 154 162 165 164 171 179 179 180 179 179 177 175 173 172 172 172 171 170 167 169 167 164 166 170 169 171 172 172 173 172 167 167 167 167 163 170 171 167 175 172 169 175 177 184 179 181 168 165 155 162 141 121 113 81 92
354 349 332 326 234 86 278 133 103 334 334 293 244 146 233 262 359 232 248 238 219 261 52 325 292 267 265 255 226 209 283 214 177 195 242 229 312 16 154 155 153 158 160 161 162 164 165 177 180 182 181 180 179 177 175 174 174 174 172 172 170 172 170 168 168 170 172 173 174 176 170 175 171 170 171 170 177 171 171 168 178 174 175 180 180 178 184 173 176 150 149 150 156 154 151 194 82
4 6 346 26 40 81 33 49 250 181 202 241 256 208 69 229 237 246 235 243 249 256 294 298 293 282 279 323 301 224 261 247 278 233 238 332 106 262 184 162 157 153 159 164 160 162 164 173 179 182 181 182 181 178 178 176 175 174 173 173 173 174 175 172 172 174 176 174 176 179 174 176 177 175 176 172 180 173 168 176 184 177 174 182 186 185 177 184 173 166 168 152 140 142 170 214 89
64 111 107 31 74 16 68 45 132 156 218 240 299 238 218 227 243 242 248 255 262 280 290 283 281 261 218 252 244 357 283 319 199 158 121 228 211 201 167 160 149 141 149 168 166 160 163 173 175 181 183 183 182 180 179 177 177 176 176 175 175 175 179 175 175 177 179 178 178 179 181 177 180 177 183 176 183 174 174 179 188 183 175 185 191 192 174 184 181 172 170 166 163 186 172 162 151
20 69 111 100 108 224 131 202 177 134 242 179 227 273 225 228 242 253 261 267 282 281 278 263 294 293 224 237 173 204 242 263 341 286 215 253 244 171 153 154 143 147 161 173 169 161 164 169 172 180 183 185 185 181 180 179 178 177 178 176 177 178 179 179 180 177 185 181 181 179 186 180 182 179 182 180 188 178 177 184 192 181 186 187 195 190 181 185 186 174 177 176 172 180 192 184 170
21 58 356 96 164 194 53 285 229 211 230 124 243 237 232 236 247 257 281 284 276 265 254 261 251 278 281 231 183 180 206 14 269 309 279 236 162 144 139 147 147 152 160 166 173 163 166 171 171 178 185 186 186 184 181 181 179 179 179 178 179 182 179 182 177 185 182 185 185 181 185 185 187 183 186 182 187 183 182 186 194 190 190 186 196 191 186 192 193 194 190 177 181 200 205 195 209
350 28 2 26 326 40 205 226 241 227 250 188 243 263 265 276 273 287 284 298 289 262 220 221 153 238 341 294 319 250 204 159 71 234 197 287 175 142 144 153 151 161 161 167 172 169 168 171 172 178 186 188 188 187 185 185 183 181 180 179 181 182 181 184 181 186 184 184 191 185 188 187 188 186 190 186 190 188 183 187 191 196 195 193 190 200 196 199 199 204 194 192 194 204 212 210 225
46 94 292 112 249 116 249 236 252 178 271 193 237 256 266 264 271 276 275 283 288 312 276 293 263 219 245 83 235 274 279 219 187 196 84 46 345 154 156 151 157 173 174 173 175 172 172 173 172 178 186 190 191 188 188 187 187 184 182 183 182 183 184 184 190 186 185 188 190 189 192 189 190 190 194 191 193 192 185 195 184 199 193 197 197 198 203 206 206 210 205 204 200 201 208 212 223
2 100 349 68 272 353 289 238 259 212 262 267 276 264 271 264 265 268 278 271 286 276 283 273 216 241 247 249 229 256 296 216 193 232 98 78 320 240 185 172 165 176 176 175 181 175 175 177 172 177 187 192 191 191 190 189 189 187 185 188 182 183 184 185 191 188 189 190 193 191 193 195 192 192 197 194 197 196 194 198 191 198 203 200 198 201 204 208 210 211 210 208 207 207 209 223 224
11 91 277 176 129 252 280 266 243 241 229 239 247 257 260 266 269 260 261 279 265 275 271 265 204 229 264 233 302 303 244 272 162 193 160 142 198 215 224 209 197 172 177 176 174 179 183 185 173 177 185 190 191 192 192 192 191 189 188 189 187 184 185 186 190 190 191 193 196 194 196 194 195 195 197 197 199 198 199 197 197 194 205 200 203 208 210 211 212 213 216 212 211 215 218 225 231
303 2 149 239 249 244 240 267 260 290 280 291 279 260 260 281 273 272 263 267 283 286 306 11 335 247 223 255 212 239 329 28 105 281 324 356 106 245 216 222 230 186 177 180 174 173 182 189 184 176 183 188 190 191 191 193 193 193 192 189 189 186 187 188 190 189 193 195 196 199 198 197 196 196 194 200 200 200 201 199 200 196 205 204 203 207 213 213 212 212 216 215 214 216 220 223 234
321 307 11 220 227 204 247 246 272 277 283 275 268 270 268 259 288 288 285 313 319 315 298 300 306 333 298 286 289 301 346 16 84 107 74 52 33 332 294 252 250 253 200 175 174 175 174 183 195 183 182 186 188 189 190 192 195 194 193 194 193 190 189 190 190 190 194 197 197 201 198 200 198 199 188 202 188 199 208 202 203 201 205 205 208 208 210 213 213 214 215 217 219 220 221 225 232
181 119 85 123 235 183 273 273 270 293 288 260 258 263 278 299 265 258 247 252 280 311 299 269 299 314 276 247 258 323 336 185 70 14 357 350 253 176 99 86 212 302 299 231 173 178 174 178 186 201 186 185 186 187 190 190 194 195 196 194 196 194 192 192 191 193 195 196 199 202 199 198 201 201 196 195 186 192 203 207 207 206 207 207 210 211 210 212 214 215 216 218 221 224 227 225 234
151 182 119 261 352 259 261 263 289 282 274 270 247 274 286 279 266 243 264 303 287 266 228 300 321 308 273 285 307 318 271 349 305 90 349 349 342 313 168 152 136 127 107 278 213 178 180 181 181 197 195 184 185 187 188 189 193 196 198 196 196 196 194 196 195 194 195 195 199 207 202 199 198 202 198 192 189 190 192 210 212 208 210 210 211 212 215 213 214 215 218 218 222 224 224 226 234
211 153 95 204 284 353 231 228 224 248 275 302 266 271 302 271 308 301 300 291 272 219 269 267 232 6 245 357 290 275 273 260 174 150 142 317 312 306 307 198 152 147 153 183 218 189 189 184 182 187 208 186 182 185 186 191 191 195 197 198 197 197 196 199 197 196 196 196 198 204 207 203 198 203 201 192 191 192 192 202 207 214 211 214 213 215 217 218 216 218 218 221 223 224 224 227 233
184 92 88 257 261 190 268 226 251 264 270 283 270 303 312 289 267 295 280 234 276 272 332 272 316 247 254 272 256 260 278 286 300 82 156 180 189 290 321 314 140 148 159 166 177 205 192 187 189 182 214 198 181 184 187 189 194 194 195 198 198 198 198 200 199 199 201 196 196 203 208 203 201 203 207 198 192 193 196 193 208 205 226 226 216 219 219 220 221 218 220 222 225 225 224 228 231
75 89 295 207 274 176 252 214 173 269 255 277 290 314 305 295 302 286 258 237 280 276 263 241 243 211 247 242 236 257 285 283 107 358 331 252 200 212 332 299 326 146 174 175 183 191 191 194 193 187 209 217 187 182 189 191 195 193 194 197 199 198 199 200 199 200 203 195 194 207 208 201 198 197 209 190 197 192 194 195 201 203 211 240 233 220 221 222 222 222 222 223 225 225 224 227 233
80 205 176 260 221 223 221 211 198 218 299 290 297 289 304 295 310 292 326 302 301 294 273 265 261 247 246 259 232 250 272 297 247 181 231 234 222 234 226 240 224 201 200 193 193 194 186 204 199 192 189 221 205 190 191 193 192 193 193 195 198 199 199 198 199 198 199 198 202 204 202 198 191 192 198 190 186 195 195 193 196 198 202 217 235 234 223 224 223 225 224 226 227 228 223 220 242
156 194 156 244 181 232 163 224 253 285 269 276 279 282 275 274 296 288 308 291 296 294 283 286 284 274 261 264 268 263 269 272 283 227 244 252 254 240 222 205 215 240 216 218 209 193 194 190 198 198 192 190 210 209 200 196 194 193 192 193 196 196 197 197 196 197 196 197 201 200 195 194 190 185 189 189 172 193 198 195 195 197 200 206 217 236 249 231 226 226 226 229 230 228 224 197 207
231 172 232 241 212 246 230 247 259 247 267 276 279 275 273 274 279 293 270 288 290 276 281 286 271 276 285 279 268 272 271 263 238 239 245 247 240 247 280 277 266 242 223 202 204 197 190 188 194 200 193 185 188 205 211 204 200 193 193 192 191 194 195 197 196 195 197 197 198 195 193 191 190 186 187 182 175 184 204 204 198 197 200 204 208 219 235 252 240 228 228 231 231 230 200 192 193
265 174 222 243 226 254 250 244 254 259 259 265 268 275 281 277 270 263 278 292 277 271 263 252 268 273 269 274 283 274 265 264 265 246 234 243 244 237 239 239 227 233 231 233 211 199 194 196 190 197 195 187 188 193 205 211 206 199 194 193 192 191 193 195 197 196 197 198 198 192 190 188 188 186 186 189 185 177 189 205 205 200 195 201 202 207 213 224 236 224 248 255 245 212 192 205 192
132 219 236 245 265 269 261 247 257 258 255 264 271 283 271 290 283 256 251 254 270 266 275 191 236 250 264 274 273 277 276 270 268 267 246 225 235 246 252 260 252 243 255 268 229 212 205 198 192 192 189 192 192 193 197 204 206 210 200 196 190 193 193 195 196 197 196 197 196 194 181 186 189 189 190 195 197 186 190 198 201 197 198 200 196 200 203 205 215 197 209 233 245 228 213 207 205
249 252 251 246 244 255 277 268 262 262 273 267 273 261 299 281 284 274 257 250 256 264 271 267 256 255 260 264 272 275 269 269 264 259 256 246 237 238 238 237 233 240 216 224 244 237 215 201 196 184 188 192 200 198 194 190 203 214 210 198 193 198 193 195 200 199 199 196 196 190 184 189 190 190 193 196 203 195 204 196 198 195 198 198 195 191 199 202 202 201 205 220 218 217 235 229 221
232 259 255 268 245 248 264 265 277 278 269 263 256 294 279 277 280 276 270 258 251 262 271 264 264 264 263 262 259 256 262 259 258 258 256 257 253 236 230 241 240 233 232 224 222 235 239 218 199 185 189 189 196 198 197 196 200 206 210 205 206 202 194 202 201 200 197 201 198 195 193 192 192 195 198 198 202 195 208 201 194 198 201 201 190 190 192 197 203 205 206 217 219 222 227 234 234
260 264 227 264 276 261 269 264 269 270 269 261 271 273 266 264 263 297 274 270 269 262 264 271 266 264 262 256 258 259 259 260 258 257 257 256 253 243 234 235 240 228 234 231 224 221 224 215 205 196 192 193 194 191 199 201 198 197 204 207 210 201 203 205 200 194 202 202 201 198 192 196 197 200 202 204 193 206 202 198 195 204 199 199 185 198 190 191 200 199 205 212 216 226 228 237 232
227 238 287 285 282 294 287 291 283 279 283 279 287 273 270 264 301 275 263 269 267 268 281 267 263 264 259 256 253 252 253 255 256 257 255 252 246 246 244 229 231 231 224 231 226 222 227 212 203 204 198 194 194 186 199 200 197 196 200 209 211 203 212 203 194 202 203 198 205 202 198 199 200 200 203 198 199 206 200 197 198 200 201 192 190 198 192 186 195 197 203 207 212 224 228 233 221
300 300 282 280 283 293 286 273 284 276 273 275 265 269 270 269 108 274 274 251 266 287 264 265 261 255 256 255 255 252 248 250 250 251 256 252 251 245 244 233 224 228 216 226 227 219 218 207 206 207 208 201 190 190 195 201 195 200 199 200 204 209 211 197 202 205 202 206 206 201 203 203 202 201 200 197 203 203 199 196 202 192 199 196 192 199 181 191 186 195 197 200 208 217 229 228 216
313 306 311 290 288 280 279 283 271 283 289 255 238 262 264 256 185 241 257 277 254 251 267 266 256 253 253 255 255 253 250 250 250 248 248 250 248 244 244 238 237 231 217 222 223 216 211 205 203 205 206 204 194 196 196 197 198 199 199 195 201 207 197 203 206 204 207 209 204 204 205 205 203 204 200 199 200 202 202 200 197 193 203 190 192 191 185 187 187 197 198 199 202 204 226 227 220
293 338 310 295 292 288 271 257 265 146 258 275 294 290 274 177 225 234 247 261 277 272 266 264 264 260 257 256 257 255 248 247 247 245 242 241 243 242 244 237 229 236 228 221 223 214 212 204 202 206 203 202 198 198 197 198 198 199 197 195 201 198 195 200 204 206 208 205 204 206 208 205 204 204 202 201 200 203 203 200 200 203 198 189 185 187 181 182 186 189 205 197 204 209 222 235 225
320 285 255 308 306 291 281 204 245 203 250 266 73 321 288 221 224 253 249 257 263 269 270 266 261 260 259 257 254 256 253 248 246 241 239 238 238 237 237 241 230 229 233 218 222 222 213 207 202 202 204 202 200 202 201 198 198 200 199 198 198 191 196 201 206 207 204 203 203 207 207 207 207 207 202 202 198 201 202 203 202 202 194 184 178 175 181 181 191 190 197 187 209 205 215 226 214
264 289 157 252 318 272 290 313 292 322 262 201 105 247 282 294 273 233 265 253 249 259 263 267 268 265 261 255 252 253 254 243 242 241 238 236 235 233 232 238 235 229 229 229 224 226 214 206 199 207 201 203 198 203 202 202 199 199 197 200 198 193 196 202 205 204 202 204 201 206 205 207 207 206 203 199 200 199 201 204 204 201 183 177 179 182 178 184 188 196 182 194 204 210 214 219 209
280 349 282 322 189 278 302 284 244 216 306 120 135 258 259 282 288 282 245 254 248 262 270 273 272 270 265 259 256 254 255 252 245 245 241 236 231 232 228 234 234 231 226 227 229 228 229 217 203 207 200 202 199 200 202 204 202 201 200 200 200 197 199 202 203 201 203 201 200 205 205 205 205 204 202 198 199 200 202 204 203 186 181 176 182 176 178 184 190 194 196 183 191 213 205 223 207
326 185 284 280 234 271 327 303 145 203 238 239 177 274 298 280 284 297 265 254 267 268 275 278 277 275 271 266 259 256 258 258 251 244 242 234 231 226 227 230 233 229 226 227 228 230 232 231 213 212 208 203 201 202 202 204 203 203 203 202 202 197 201 205 207 204 203 200 203 206 204 204 203 201 200 199 200 199 201 203 196 187 174 180 177 179 188 186 180 191 197 198 191 197 200 212 212
268 206 233 218 262 305 288 300 307 57 53 293 289 266 266 274 287 290 294 286 259 268 277 281 281 279 276 273 267 260 256 256 256 250 242 233 232 224 223 224 228 228 226 224 224 223 223 225 214 209 210 204 203 202 202 203 206 205 204 205 202 202 204 206 206 201 204 207 206 210 205 203 203 200 199 198 202 200 199 199 189 182 175 177 181 180 193 179 185 183 194 200 198 191 199 201 209
230 174 253 284 250 230 249 292 266 349 310 299 293 274 279 281 283 284 283 289 283 273 273 278 282 282 280 277 271 264 259 256 252 248 245 238 233 230 224 224 228 228 225 223 224 223 223 224 215 209 206 200 204 204 205 206 207 208 208 205 206 208 209 212 205 203 206 208 210 210 204 202 205 203 201 197 199 197 196 195 187 181 176 179 180 184 185 184 185 188 190 196 208 205 192 196 191
229 214 250 277 290 281 259 245 276 285 293 295 286 281 288 292 293 293 295 293 289 278 278 275 272 274 276 275 271 267 263 263 259 258 253 246 232 231 226 223 226 225 223 221 221 222 222 223 214 211 207 199 199 201 199 204 205 204 205 209 221 220 216 213 212 210 208 211 209 206 202 204 202 202 201 198 199 197 194 190 186 176 182 179 182 186 190 186 187 183 198 189 194 218 215 183 161
329 317 293 273 275 279 274 269 264 240 278 264 260 271 282 287 290 293 290 299 301 293 287 280 274 271 271 268 267 269 270 261 273 281 274 247 238 234 230 225 226 226 222 218 218 219 216 214 203 208 207 199 193 196 199 197 199 203 214 210 210 205 208 210 213 215 216 213 209 206 203 203 200 198 199 195 200 196 194 186 182 186 184 186 189 195 189 187 186 186 185 179 183 191 216 184 174
260 270 274 279 266 268 278 292 292 264 209 275 271 290 283 286 289 291 293 298 287 284 290 292 292 290 276 267 276 280 270 293 303 300 287 272 254 243 242 239 236 231 230 219 216 217 212 211 204 208 202 198 198 195 196 198 199 197 195 203 203 208 208 208 217 214 215 213 210 206 204 201 197 196 195 195 197 192 191 189 191 189 186 191 195 187 184 182 180 183 166 182 200 189 202 180 174
246 236 263 283 270 262 274 271 257 262 194 273 301 298 290 288 290 292 290 278 270 264 256 271 284 289 299 302 296 299 318 306 317 297 298 313 314 306 268 251 246 235 247 233 224 215 212 209 208 208 201 196 201 200 195 199 201 207 203 205 201 210 213 212 216 220 213 214 201 200 201 198 195 196 193 193 194 196 196 191 195 187 187 183 180 186 185 187 187 186 179 186 188 227 197 185 177
238 243 238 239 262 2 309 243 331 318 318 294 301 291 285 286 284 280 267 250 250 274 278 274 251 256 282 293 299 301 315 310 305 300 290 301 308 303 324 294 260 260 246 241 241 236 224 211 207 207 204 201 201 203 198 200 200 203 206 210 210 202 195 199 198 155 178 186 207 201 203 196 195 196 192 192 198 198 196 195 185 182 189 185 186 186 188 194 185 188 189 193 169 183 203 211 198
231 228 239 254 259 247 220 291 332 308 290 251 295 275 278 271 302 318 279 212 291 297 312 297 348 252 260 272 304 293 305 301 293 305 322 335 337 325 305 282 296 281 254 242 230 215 214 216 212 208 207 201 204 202 200 200 196 172 136 62 73 88 56 119 159 204 201 205 212 206 209 201 197 195 191 195 198 199 195 190 185 187 185 189 188 191 192 194 187 189 185 188 188 195 201 199 207
247 236 230 234 246 265 265 288 347 342 313 327 17 335 278 291 303 290 291 327 319 313 354 328 330 329 342 344 319 315 316 277 253 294 300 295 293 313 326 319 308 281 270 251 231 222 204 215 219 217 212 207 205 203 199 193 183 179 168 167 163 179 202 183 197 206 209 209 215 204 196 188 196 199 196 199 200 195 193 192 188 185 190 189 192 196 190 185 192 191 193 193 199 203 193 185 194
221 265 209 224 235 242 265 285 23 289 245 275 55 65 289 302 288 283 298 310 297 316 333 301 322 322 332 319 316 310 307 322 327 323 328 333 318 332 323 317 302 297 281 274 259 238 226 217 214 214 208 207 207 204 192 177 184 185 187 190 195 198 205 215 215 219 210 210 197 190 195 186 193 195 199 197 199 199 195 190 190 191 189 190 191 188 191 195 194 196 189 195 201 196 182 193 197
240 251 169 192 198 205 224 209 201 246 264 280 180 169 245 305 289 263 208 324 300 310 312 322 322 322 307 300 302 310 314 317 308 306 305 299 287 311 300 299 305 294 290 309 267 202 203 217 211 219 224 214 204 190 179 183 187 189 193 202 204 206 207 215 209 212 194 172 184 200 190 197 198 199 198 198 197 194 193 191 190 189 189 192 187 196 198 196 193 197 192 197 196 194 195 201 200
214 255 168 182 191 204 167 169 213 230 32 283 131 190 282 245 264 298 268 292 310 293 283 290 293 294 284 289 299 306 307 299 296 304 308 303 304 312 300 294 297 313 323 338 336 354 104 123 144 164 200 205 198 177 186 196 195 193 194 197 204 212 212 221 182 172 183 176 188 194 195 201 201 206 205 199 195 192 191 191 188 190 193 193 192 199 201 191 193 188 190 194 200 202 201 204 188
260 173 86 62 79 89 148 182 276 340 3 271 200 178 213 276 276 310 3 224 244 243 247 257 258 259 273 296 311 317 326 330 324 316 299 300 299 298 285 283 296 293 298 309 321 15 42 67 96 135 198 197 191 180 185 197 202 189 195 199 203 211 208 200 154 180 186 173 196 198 199 196 199 202 204 200 195 194 192 190 191 195 196 193 192 201 196 192 195 195 195 196 198 202 202 200 205
101 115 249 347 28 19 20 72 94 37 262 256 176 196 177 284 267 245 204 217 189 195 264 267 275 277 284 280 282 302 319 325 324 325 323 316 298 276 297 297 287 311 314 322 340 7 359 51 96 148 204 184 182 190 182 195 195 190 200 202 205 210 199 186 177 193 182 179 200 203 196 200 192 201 193 200 199 194 194 193 194 199 195 193 196 198 198 196 194 196 197 200 202 202 199 202 209
144 153 125 21 315 14 36 345 50 173 264 274 213 191 184 206 286 278 229 279 190 157 182 206 235 252 260 274 283 290 299 311 316 325 323 327 336 335 341 329 320 298 315 329 326 344 3 8 116 184 205 175 174 179 183 195 191 201 208 204 208 207 184 185 193 199 191 194 198 197 192 182 199 199 193 196 203 196 192 196 199 196 196 195 200 198 198 197 191 191 193 198 204 205 202 199 204
126 107 90 134 271 27 312 34 267 211 233 267 68 137 35 237 245 265 296 242 251 224 179 187 202 229 250 264 265 269 287 304 316 315 318 322 323 319 330 317 317 326 317 306 304 315 328 338 334 263 252 204 181 173 181 192 192 202 198 198 204 189 189 195 199 200 191 195 191 188 182 200 192 192 202 202 203 193 190 193 196 199 200 201 199 194 201 190 188 191 196 199 203 202 203 199 203
144 160 163 152 226 221 262 251 266 303 283 268 123 242 257 262 265 250 250 252 231 212 218 199 186 203 222 239 258 287 299 294 290 299 301 297 298 306 305 305 303 296 297 299 305 320 315 315 311 264 260 272 225 175 181 185 203 204 198 198 195 184 196 197 201 199 193 196 188 195 194 198 196 202 198 204 195 190 197 200 194 201 201 196 194 196 194 191 188 192 196 201 205 207 201 204 209
191 129 163 189 151 165 219 194 206 222 228 303 268 117 235 145 246 229 243 263 257 210 201 201 208 210 218 239 265 281 289 292 292 301 294 288 295 293 295 300 301 296 291 298 304 296 320 308 311 293 288 281 238 210 176 192 208 216 216 208 200 194 199 197 202 195 190 194 197 198 200 199 201 205 202 202 186 192 199 195 198 200 199 195 189 191 193 190 191 193 200 205 206 202 203 203 210
200 154 64 113 218 127 219 205 175 296 336 339 204 209 197 198 265 300 272 293 310 160 200 186 221 231 244 260 240 252 275 275 293 300 302 299 287 292 300 299 289 288 287 296 291 274 285 271 293 291 271 280 270 227 210 197 206 203 215 215 216 207 206 201 202 201 202 195 194 196 199 198 204 201 202 187 191 191 195 199 200 203 198 196 192 191 191 193 192 195 202 203 209 196 201 205 210
205 120 205 206 158 183 288 314 341 85 26 249 165 281 269 299 294 275 278 232 257 319 209 194 217 217 218 234 237 248 257 278 281 275 281 294 307 306 282 278 288 291 291 270 259 240 233 257 271 284 290 297 287 278 263 218 203 196 222 222 222 217 211 207 208 208 204 201 197 201 197 201 199 198 197 189 190 195 197 199 202 203 198 199 198 195 194 197 192 198 202 203 210 196 199 208 205
103 193 223 98 100 94 132 213 323 62 212 270 139 228 265 143 275 311 306 297 235 201 203 207 213 212 215 232 231 236 240 244 259 273 272 268 273 278 290 289 271 270 266 279 267 241 221 223 228 248 274 273 277 279 278 271 247 222 218 217 224 221 219 222 217 210 203 197 209 205 203 199 203 198 190 188 186 192 197 198 203 203 201 199 202 198 196 197 193 202 206 206 207 190 202 209 208
156 195 224 133 234 230 252 93 260 237 254 267 282 260 258 210 240 336 311 228 234 213 202 201 221 226 228 235 245 256 269 292 283 280 294 301 296 296 293 290 299 290 275 270 285 293 245 233 222 202 230 239 264 286 285 285 269 258 238 219 208 219 224 227 228 217 198 204 205 204 203 207 194 189 188 181 188 192 196 199 203 203 199 203 201 201 196 197 195 205 205 208 199 192 202 211 209
64 77 352 288 91 227 146 201 177 122 250 46 287 36 253 184 214 211 250 234 212 203 199 211 214 213 214 226 237 245 255 245 256 261 263 267 277 281 288 303 312 316 310 300 299 318 282 259 239 238 244 248 258 271 275 275 271 264 273 272 251 225 218 210 207 195 202 209 209 200 203 196 199 185 192 185 190 193 194 198 201 201 202 201 200 201 194 199 197 209 203 204 199 192 204 211 208
187 190 224 348 242 244 94 330 170 185 182 203 255 295 265 247 213 208 219 230 197 196 202 210 213 215 214 224 223 234 237 239 237 241 252 262 283 309 316 307 312 322 334 344 341 308 297 321 278 263 244 254 239 230 225 248 264 270 275 261 255 247 238 222 206 199 199 209 205 202 202 201 175 196 185 190 195 196 196 200 197 199 201 200 198 199 195 198 204 210 209 205 195 196 205 212 204
179 188 202 194 167 198 188 254 63 136 125 229 154 256 274 249 225 213 243 237 209 211 206 208 212 203 205 224 236 227 235 235 229 239 240 267 309 327 348 359 0 12 11 13 5 3 348 330 317 316 302 272 262 263 221 218 217 240 249 270 276 268 237 213 211 204 210 207 207 203 202 184 194 202 187 194 197 196 195 196 197 200 201 201 200 199 194 196 206 209 212 204 200 198 208 212 203